K2MST Weather Reports


time (UTC)temp
F
wind
direction
speed
knots
gust
knots
rain 1hr
in
rain 24hr
in
rain mn
in
humidity
%
barometer
mb
20260903182521 84 23 2.6 6.1 0.00 0.12 0.00 57 1010.9
20260903181521 85 338 2.6 8.7 0.00 0.12 0.00 56 1011.0
20260903180521 84 338 3.5 7.0 0.00 0.12 0.00 57 1011.0
20260903175521 84 315 2.6 5.2 0.00 0.12 0.00 55 1011.1
20260903174521 83 23 3.5 10.4 0.00 0.12 0.00 56 1011.2
20260903173521 82 338 1.7 3.5 0.00 0.12 0.00 61 1011.2
20260903172522 81 248 2.6 5.2 0.00 0.12 0.00 63 1011.2
20260903171521 82 270 3.5 5.2 0.00 0.12 0.00 63 1011.3
20260903170542 82 0 1.7 4.3 0.00 0.12 0.00 64 1011.2
20260903165521 82 270 2.6 5.2 0.00 0.12 0.00 62 1011.3
20260903164521 82 248 2.6 5.2 0.00 0.12 0.00 66 1011.5
20260903163521 80 338 3.5 6.1 0.00 0.12 0.00 65 1011.6
20260903162521 80 293 3.5 7.8 0.00 0.12 0.00 67 1011.7
20260903161601 80 293 3.5 7.0 0.00 0.12 0.00 70 1011.7
20260903160521 80 293 3.5 6.1 0.00 0.12 0.00 69 1011.7
20260903155541 79 248 2.6 5.2 0.00 0.12 0.00 73 1011.8
20260903154520 79 293 3.5 8.7 0.00 0.12 0.00 74 1011.8
20260903153521 78 293 3.5 6.1 0.00 0.13 0.00 76 1011.9
20260903152521 78 293 3.5 6.1 0.00 0.19 0.00 77 1012.0
20260903151520 77 270 4.3 8.7 0.00 0.38 0.00 79 1012.0
20260903150521 76 293 4.3 10.4 0.00 0.70 0.00 80 1012.2
20260903145520 76 248 2.6 4.3 0.00 1.21 0.00 82 1012.2
20260903144523 75 270 2.6 5.2 0.00 1.27 0.00 83 1012.1
20260903143520 74 270 1.7 3.5 0.00 1.36 0.00 84 1012.1
20260903142520 74 248 2.6 5.2 0.00 1.55 0.00 84 1012.0
20260903141520 73 225 3.5 8.7 0.00 1.81 0.00 85 1012.0
20260903140520 73 225 1.7 6.1 0.00 1.92 0.00 85 1012.1
20260903135520 73 225 2.6 6.1 0.00 1.96 0.00 85 1011.8
20260903134520 73 225 2.6 5.2 0.00 1.98 0.00 85 1011.9
20260903133522 73 203 1.7 3.5 0.00 2.00 0.00 85 1012.0
20260903132520 73 225 1.7 5.2 0.00 2.00 0.00 84 1011.9
20260903131520 73 225 2.6 3.5 0.00 2.00 0.00 84 1011.9
20260903130520 73 225 3.5 6.1 0.00 2.00 0.00 83 1011.9
20260903125520 73 225 2.6 5.2 0.00 2.00 0.00 83 1011.8
20260903124521 73 225 1.7 4.3 0.00 2.00 0.00 83 1011.9
20260903123520 73 203 1.7 6.1 0.00 2.00 0.00 83 1011.8
20260903122520 73 248 1.7 4.3 0.00 2.00 0.00 84 1011.7
20260903121520 72 225 0.9 2.6 0.00 2.00 0.00 84 1011.8
20260903120540 72 158 1.7 3.5 0.00 2.00 0.00 84 1011.6
20260903115524 72 180 0.9 2.6 0.00 2.00 0.00 85 1011.6
20260903114520 71 248 1.7 2.6 0.00 2.00 0.00 86 1011.6
20260903113520 71 158 2.6 6.1 0.00 2.00 0.00 86 1011.5
20260903112520 71 135 0.9 1.7 0.00 2.00 0.00 86 1011.3
20260903111520 71 158 1.7 3.5 0.00 2.00 0.00 87 1011.1
20260903110520 71 158 0.9 1.7 0.00 2.00 0.00 87 1011.1
20260903105520 70 0.0 1.7 0.00 2.00 0.00 87 1010.9
20260903104519 70 0.0 1.7 0.00 2.00 0.00 87 1011.0
20260903103519 70 158 1.7 3.5 0.00 2.00 0.00 88 1011.1
20260903102522 70 135 0.9 2.6 0.00 2.00 0.00 88 1011.0
20260903101522 70 158 0.9 2.6 0.00 2.00 0.00 88 1010.9
20260903100541 70 135 0.9 1.7 0.00 2.00 0.00 88 1010.8
20260903095521 70 158 0.9 1.7 0.00 2.00 0.00 88 1010.9
20260903094522 70 158 0.9 2.6 0.00 2.00 0.00 88 1010.9
20260903093521 70 158 1.7 3.5 0.00 2.00 0.00 88 1011.0
20260903092521 70 0.0 0.0 0.00 2.00 0.00 88 1011.0
20260903091522 70 0.0 1.7 0.00 2.00 0.00 88 1010.9
20260903090521 70 0.0 0.9 0.00 2.00 0.00 88 1010.9
20260903085521 70 158 0.9 3.5 0.00 2.00 0.00 88 1010.7
20260903084521 70 0.0 2.6 0.00 2.00 0.00 88 1010.8
20260903083521 70 135 0.9 2.6 0.00 2.00 0.00 87 1010.8
20260903082521 71 135 0.9 2.6 0.00 2.00 0.00 86 1010.9
20260903081541 71 180 2.6 6.1 0.00 2.00 0.00 86 1010.7
20260903080521 70 0.0 0.9 0.00 2.00 0.00 87 1010.9
20260903075601 70 0.0 2.6 0.00 2.00 0.00 87 1011.0
20260903074521 70 0.0 0.9 0.00 2.00 0.00 87 1010.9
20260903073521 70 158 0.9 1.7 0.00 2.00 0.00 88 1011.1
20260903072541 70 225 1.7 3.5 0.00 2.00 0.00 88 1011.2
20260903071521 70 158 0.9 2.6 0.00 2.00 0.00 89 1011.2
20260903070520 69 158 0.9 2.6 0.00 2.00 0.00 89 1011.3
20260903065520 69 135 0.9 1.7 0.00 2.00 0.00 90 1011.3
20260903064521 69 180 2.6 4.3 0.00 2.00 0.00 90 1011.1
20260903063541 69 158 0.9 2.6 0.00 2.00 0.00 90 1011.1
20260903062522 69 0.0 0.0 0.00 2.00 0.00 90 1011.0
20260903061520 69 0.0 1.7 0.00 2.00 0.00 90 1011.0
20260903060521 69 0.0 0.0 0.00 2.00 0.00 90 1011.1
20260903055521 69 158 0.9 2.6 0.00 2.00 0.00 90 1010.9
20260903054520 69 158 1.7 4.3 0.00 2.00 0.00 90 1011.0
20260903053522 69 0.0 0.0 0.00 2.00 0.00 89 1011.0
20260903052520 69 0.0 0.0 0.00 2.00 0.00 89 1010.9
20260903051520 69 0.0 0.0 0.00 2.00 0.00 89 1010.9
20260903050520 69 0.0 0.0 0.00 2.00 0.00 88 1010.7
20260903045520 69 0.0 0.0 0.00 2.00 0.00 88 1010.9
20260903044520 69 0.0 0.0 0.00 2.00 0.00 88 1010.7
20260903043520 69 0.0 0.9 0.00 2.00 0.00 88 1010.5
20260903042520 69 0.0 0.9 0.00 2.00 0.00 88 1010.7
20260903041520 70 135 1.7 6.1 0.00 2.00 0.00 88 1010.9
20260903040520 70 158 1.7 3.5 0.00 2.00 0.00 88 1011.0
20260903035520 69 180 1.7 5.2 0.00 2.00 2.00 89 1011.5
20260903034520 69 180 1.7 7.8 0.00 2.00 2.00 89 1011.4
20260903033520 69 45 0.9 3.5 0.02 2.00 2.00 89 1011.4
20260903032520 69 0 0.9 1.7 0.02 2.00 2.00 89 1011.4
20260903031521 68 180 5.2 10.4 0.03 2.00 2.00 89 1010.5
20260903030520 68 158 8.7 15.6 0.03 2.00 2.00 89 1009.6
20260903025520 69 203 7.8 13.0 0.03 2.00 2.00 89 1009.8
20260903024540 69 180 6.1 10.4 0.05 2.00 2.00 89 1010.2
20260903023520 70 180 7.8 12.2 0.03 1.98 1.98 88 1010.3
20260903022520 70 180 6.1 11.3 0.03 1.98 1.98 88 1011.0
20260903021520 70 180 7.8 13.9 0.03 1.97 1.97 88 1010.9
20260903020600 71 180 9.6 20.0 0.06 1.97 1.97 87 1010.4
20260903015542 72 203 11.3 18.2 0.08 1.97 1.97 86 1011.2
20260903014520 73 203 6.1 12.2 0.07 1.95 1.95 88 1012.0
20260903013521 73 180 12.2 18.2 0.07 1.95 1.95 88 1011.6
20260903012520 73 158 12.2 16.5 0.07 1.95 1.95 88 1011.1
20260903011520 74 158 5.2 8.7 0.06 1.94 1.94 87 1011.7
20260903010520 74 180 3.5 7.0 0.03 1.91 1.91 85 1012.4
20260903005520 75 180 3.5 8.7 0.01 1.89 1.89 84 1012.9
20260903004522 75 180 6.1 10.4 0.00 1.88 1.88 83 1012.3
20260903003520 75 158 6.1 10.4 0.00 1.88 1.88 83 1011.4
20260903002520 75 180 6.1 13.0 0.00 1.88 1.88 83 1011.3
20260903001520 75 158 7.0 13.9 0.00 1.88 1.88 83 1011.1
20260903000519 75 180 11.3 20.0 0.00 1.88 1.88 83 1011.2
20260902235539 75 180 10.4 16.5 0.00 1.88 1.88 83 1010.7
20260902234521 75 158 9.6 15.6 0.00 1.88 1.88 83 1010.8
20260902233521 76 180 11.3 20.0 0.00 1.88 1.88 82 1010.8
20260902232522 76 158 9.6 20.9 0.00 1.88 1.88 82 1011.0
20260902231522 76 180 13.0 26.1 0.00 1.88 1.88 81 1011.0
20260902230542 77 203 8.7 18.2 0.00 1.88 1.88 81 1010.8
20260902225541 77 180 7.8 17.4 0.00 1.88 1.88 81 1010.6
20260902224521 77 180 8.7 13.9 0.00 1.88 1.88 80 1010.3
20260902223521 78 158 7.0 13.9 0.00 1.88 1.88 79 1010.4
20260902222542 78 180 9.6 15.6 0.00 1.88 1.88 79 1010.4
20260902221521 79 158 8.7 12.2 0.00 1.88 1.88 78 1010.2
20260902220521 79 158 7.0 13.0 0.00 1.88 1.88 77 1010.6
20260902215521 80 158 6.1 11.3 0.00 1.88 1.88 76 1011.5
20260902214521 80 180 6.1 11.3 0.00 1.88 1.88 75 1012.1
20260902213521 80 158 7.8 11.3 0.00 1.88 1.88 75 1012.5
20260902212521 80 180 6.1 9.6 0.00 1.88 1.88 75 1012.5
20260902211521 81 158 4.3 10.4 0.00 1.88 1.88 75 1012.9
20260902210521 81 180 4.3 7.8 0.00 1.88 1.88 75 1012.8
20260902205521 82 180 6.1 11.3 0.00 1.88 1.88 73 1012.7
20260902204521 83 180 6.1 10.4 0.00 1.88 1.88 71 1012.7
20260902203541 83 180 6.1 11.3 0.00 1.88 1.88 72 1012.7
20260902202520 83 180 8.7 13.9 0.00 1.88 1.88 71 1012.8
20260902201541 82 203 8.7 15.6 0.00 1.88 1.88 71 1012.8
20260902200521 82 180 8.7 14.8 0.00 1.88 1.88 72 1012.5
20260902195522 83 180 11.3 16.5 0.00 1.88 1.88 71 1012.3
20260902194521 82 158 9.6 16.5 0.00 1.88 1.88 71 1012.4
20260902193520 83 180 8.7 12.2 0.00 1.88 1.88 70 1012.4
20260902192521 83 180 10.4 17.4 0.00 1.88 1.88 69 1012.5
20260902191521 83 180 8.7 13.0 0.00 1.88 1.88 69 1012.6
20260902190520 84 180 8.7 16.5 0.00 1.88 1.88 68 1012.8
20260902185520 84 158 9.6 13.9 0.00 1.88 1.88 67 1012.8
20260902184521 85 158 7.8 12.2 0.00 1.88 1.88 66 1013.1
20260902183540 84 180 7.0 14.8 0.00 1.88 1.88 65 1013.2